Theta_e
342 339 339 340 340 340 340 340 340 340 339 339 338 336 334 333 334 335 335 334 334 335 336 336 336 336 336 337 337 337 336 336 337 336 336 335 335 335 334 334 333 333 334 334 334 333 333 333 332 332 331 330 327 326 325 323 323 322 320 319 317 318 322 326 329 329 327 326 327 329 328 328 328 328 327 326 326 326 326 326 326 326 326 326 325
341 339 339 340 340 340 340 340 340 340 339 338 336 335 333 333 334 333 333 333 333 333 334 335 335 335 335 336 335 336 335 335 336 335 334 334 334 334 334 334 334 333 332 332 332 332 332 331 331 330 329 327 326 325 323 321 321 320 318 317 314 316 324 327 329 330 329 327 326 327 328 328 327 327 327 327 326 325 325 325 325 326 327 326 324
340 338 339 339 339 339 339 340 340 340 338 337 335 333 333 334 335 333 334 333 333 333 333 333 333 334 334 334 334 334 334 334 334 334 333 334 333 333 335 335 334 332 331 331 331 332 332 332 330 329 327 325 324 323 321 320 319 318 316 316 316 319 325 326 326 328 329 328 324 324 325 326 327 327 327 326 326 325 324 325 325 325 326 326 325
340 338 339 339 339 339 339 339 339 339 338 336 334 333 333 335 335 334 335 333 333 333 333 333 333 334 333 333 333 333 333 333 333 334 333 333 334 333 334 335 334 332 332 332 331 332 331 330 328 327 325 324 324 322 320 319 317 316 316 319 322 323 325 325 325 325 326 326 324 323 323 324 326 326 326 325 325 325 324 324 324 324 324 325 325
339 338 339 339 338 339 338 339 339 339 337 336 334 333 334 334 334 333 333 333 334 333 333 334 334 334 333 333 332 332 332 333 334 334 332 333 335 334 334 335 334 332 332 331 331 331 330 329 326 325 323 324 324 321 319 318 317 317 320 323 325 325 325 325 325 324 325 324 324 324 323 323 325 325 325 325 325 324 324 324 324 324 324 325 325
339 339 340 339 338 338 338 339 339 338 337 336 334 333 333 333 332 333 332 332 333 333 333 333 333 333 333 333 333 332 332 333 333 334 332 332 334 334 334 334 334 332 332 331 330 330 330 328 327 325 323 324 324 322 321 319 318 320 322 324 324 324 324 324 325 325 325 325 324 323 323 323 324 325 325 325 325 325 324 324 324 323 325 325 324
339 340 341 339 338 338 338 338 338 337 336 336 335 332 331 333 332 332 332 332 332 332 333 333 333 332 332 333 332 332 331 332 333 333 331 332 333 333 333 334 333 332 331 330 328 328 328 327 326 324 323 324 324 324 322 320 320 321 323 323 324 324 324 323 324 324 325 325 324 323 323 323 323 324 324 324 324 324 324 324 324 324 325 324 324
338 341 341 339 338 337 338 337 337 336 336 336 335 332 331 333 332 332 333 333 333 333 333 332 332 332 333 332 332 332 331 331 332 332 331 331 332 332 333 333 333 332 330 330 329 328 327 326 325 323 323 323 323 323 322 320 320 322 322 323 324 324 324 324 324 323 324 325 324 324 323 323 322 323 323 321 321 321 322 323 323 324 323 323 323
338 341 340 339 337 337 337 337 336 335 336 336 334 333 331 331 332 331 331 332 333 333 333 332 332 332 332 332 332 331 330 330 331 331 331 331 331 332 333 333 332 331 331 331 330 328 327 326 324 323 322 322 322 322 320 319 321 322 323 323 324 324 324 324 324 323 323 324 324 323 322 323 323 324 324 322 320 320 321 322 322 323 322 321 323
337 340 339 339 336 336 337 336 336 336 336 336 335 333 331 331 330 329 330 331 332 332 332 331 331 331 331 331 331 330 329 330 330 331 331 331 331 331 332 332 332 331 331 331 330 328 327 327 325 324 323 322 321 320 319 319 320 322 323 323 324 324 323 323 323 323 323 323 323 322 323 323 323 323 324 324 323 321 321 321 321 323 323 321 322
336 339 339 337 336 335 336 336 336 336 336 336 335 332 332 331 329 328 328 330 332 331 330 330 330 330 330 331 331 331 330 330 330 331 331 331 330 330 331 332 331 331 330 329 329 328 327 326 325 324 324 322 321 320 319 319 320 322 323 323 324 323 323 323 323 323 323 323 322 322 323 323 323 323 324 325 324 323 322 321 321 322 323 322 323
336 338 338 336 335 335 335 336 336 336 336 335 334 332 331 332 331 329 328 330 333 331 329 329 329 331 331 331 331 330 330 330 330 331 331 331 330 330 330 331 330 330 330 329 328 328 327 326 325 325 324 322 321 320 319 318 319 322 323 323 324 324 323 323 323 323 323 323 323 323 323 323 325 325 325 325 324 323 324 323 323 323 323 323 323
336 337 336 334 334 335 335 336 336 336 336 335 334 332 329 330 332 330 329 332 333 333 330 329 330 332 332 331 330 329 330 329 329 330 330 330 331 330 330 330 330 329 329 328 327 327 327 327 325 324 323 321 321 320 319 318 318 321 323 324 324 324 324 323 323 323 323 323 323 322 323 324 325 326 326 326 324 323 325 324 324 323 323 323 323
335 336 335 333 333 334 335 336 336 336 336 335 334 331 327 328 331 330 331 332 333 333 331 330 330 330 331 330 330 329 330 329 328 329 329 329 330 330 329 329 329 328 327 327 327 326 326 326 324 323 322 321 321 320 319 319 318 319 322 324 324 325 324 324 323 322 322 322 323 322 324 325 325 326 325 325 325 324 325 324 324 323 323 323 323
335 335 335 333 332 334 335 336 336 336 335 334 333 331 327 326 330 331 330 330 331 331 330 330 330 329 329 329 328 328 328 328 328 329 329 329 330 330 329 329 329 328 327 327 326 325 325 325 323 322 322 321 321 320 319 319 318 318 319 322 324 324 324 324 323 323 322 322 323 321 323 325 325 326 326 326 326 325 325 325 325 324 324 324 324
334 335 334 332 332 334 336 336 336 335 333 332 331 331 328 326 329 330 330 329 329 329 329 329 329 329 329 327 326 326 327 328 329 328 328 328 328 329 329 329 328 328 327 326 325 325 325 323 322 321 322 321 321 320 319 318 318 318 317 320 323 324 324 324 323 323 323 323 322 320 320 323 325 327 327 327 328 327 326 325 325 324 325 325 325
334 334 335 333 332 334 335 336 335 334 331 330 330 330 329 328 328 329 330 329 328 329 329 328 328 330 329 327 326 325 327 329 329 328 328 327 327 328 327 327 328 328 327 327 326 325 324 321 321 321 321 321 320 319 319 318 318 317 317 319 322 324 324 324 324 323 323 323 323 320 317 320 322 325 327 328 328 328 328 326 325 325 325 326 326
334 334 334 333 332 333 335 335 335 333 332 331 329 328 330 329 328 329 329 328 328 329 330 330 329 330 329 327 326 325 326 327 328 327 327 327 328 327 326 327 328 327 327 326 325 324 322 321 321 320 320 320 319 318 318 318 318 317 318 321 323 324 324 324 324 323 323 322 324 322 318 318 318 322 326 327 328 328 327 326 325 326 326 327 327
333 333 333 333 334 334 335 335 334 333 332 332 329 326 329 330 328 328 327 327 328 328 330 331 330 330 328 326 325 324 324 326 327 325 325 326 327 326 326 326 326 325 325 324 324 322 320 320 320 319 320 319 319 318 317 317 316 316 319 323 324 324 324 324 324 323 324 322 323 323 320 319 318 322 326 326 327 327 327 327 326 326 327 327 327
331 332 332 333 334 335 334 334 333 332 332 331 329 326 328 329 328 328 327 326 326 327 330 331 329 328 327 326 324 323 323 324 325 323 322 322 322 323 324 324 325 324 324 324 323 320 319 319 319 319 319 318 319 318 317 317 317 318 321 324 323 324 324 323 324 323 323 322 323 323 322 322 321 323 326 326 327 327 327 326 326 327 327 327 327
331 331 332 332 334 335 333 333 333 332 332 331 329 327 327 329 329 329 328 325 325 326 328 329 328 327 326 327 325 323 323 322 322 322 321 318 315 316 317 320 322 323 323 322 320 318 318 318 319 319 318 318 320 319 319 321 322 322 323 323 323 324 324 323 323 323 323 323 323 324 323 324 324 324 326 326 326 326 326 326 326 326 326 327 327
331 331 331 332 333 334 332 332 333 332 332 331 330 327 326 329 330 329 329 326 325 326 327 327 327 327 325 326 326 325 325 325 324 321 319 315 311 310 311 314 317 319 318 318 317 317 317 318 318 318 318 320 323 323 322 323 323 323 323 324 324 324 324 324 323 323 324 324 324 324 323 324 324 325 326 326 326 326 326 326 326 326 326 326 326
330 330 330 331 331 333 332 331 332 331 332 330 330 328 326 328 329 329 329 328 326 326 326 324 325 326 324 325 326 327 326 327 326 319 314 311 309 308 308 309 312 313 314 315 315 316 316 316 317 316 319 323 323 324 323 324 324 324 323 324 324 324 324 324 323 323 324 325 325 324 323 322 324 325 325 326 326 326 325 326 326 326 326 326 325
331 331 330 330 330 331 331 330 331 331 330 329 330 328 326 327 328 328 328 328 327 326 325 323 325 324 323 326 326 326 326 327 324 317 314 311 309 308 307 307 309 311 313 314 314 315 315 315 317 319 322 323 323 323 324 324 324 324 324 324 324 324 324 324 323 324 325 325 325 324 323 322 322 323 324 325 325 325 326 325 325 325 325 325 324
331 331 331 330 330 331 331 330 330 330 329 327 329 327 326 328 328 327 327 327 325 325 326 325 326 324 322 326 326 326 325 323 319 315 318 317 314 313 312 311 309 311 312 313 314 314 315 317 322 323 323 324 324 324 324 324 324 324 324 324 324 324 324 324 324 324 324 324 324 324 324 322 321 321 322 323 324 325 325 324 325 325 324 324 324
331 331 331 330 330 330 330 330 329 328 328 327 327 327 327 328 328 328 327 327 325 325 327 324 327 326 323 327 327 325 322 318 314 316 323 322 320 321 319 317 312 312 315 317 317 318 319 322 324 324 324 325 325 325 325 325 324 324 324 323 324 323 323 323 323 324 324 324 324 324 324 322 321 320 321 323 324 325 325 324 324 324 323 323 322
331 331 332 331 330 330 329 329 328 328 329 327 326 328 328 328 328 328 327 328 326 326 327 325 328 325 323 329 327 320 321 320 316 320 325 324 324 324 323 322 319 319 321 322 321 322 323 324 324 325 325 325 325 325 324 325 324 324 324 324 323 322 323 323 322 323 323 324 324 324 324 321 320 321 322 324 324 324 324 322 322 323 323 322 321
331 331 332 332 330 331 329 329 328 328 329 326 326 328 328 328 328 328 328 329 328 327 328 327 328 324 322 329 324 316 322 324 320 323 326 326 327 326 325 325 325 324 324 325 325 325 326 325 326 325 325 324 324 325 324 324 324 324 324 324 323 322 323 323 322 323 323 324 324 324 322 320 321 320 321 323 323 323 323 322 322 322 321 322 321
331 330 332 332 330 330 329 329 329 327 328 327 327 328 328 329 329 328 327 329 328 327 327 328 329 325 322 325 323 321 325 326 323 325 327 327 328 326 326 327 327 327 326 327 327 327 327 326 326 326 325 324 324 324 324 323 324 324 323 324 323 322 322 322 323 323 323 324 324 324 322 320 320 319 318 319 320 321 321 320 320 319 319 321 320
330 329 331 331 330 330 330 329 329 328 328 329 329 328 327 328 330 327 326 328 328 327 327 327 327 325 321 321 324 326 326 327 325 326 328 328 328 326 327 328 327 327 326 327 327 326 326 326 327 326 326 326 325 325 325 324 323 323 324 324 323 322 323 322 323 323 324 324 323 323 322 320 320 318 317 316 315 317 317 318 318 318 319 320 319
330 329 330 330 330 330 330 329 329 328 328 329 329 328 326 327 330 326 324 327 327 328 329 327 327 324 321 319 324 328 327 328 328 327 329 328 328 327 327 328 327 327 327 327 327 326 326 326 327 326 326 325 325 324 325 324 322 322 324 323 322 322 323 323 323 324 325 324 323 323 322 322 321 318 318 316 312 313 314 314 316 318 319 319 319
332 329 328 329 330 330 330 330 328 328 327 328 328 328 327 326 328 325 322 324 323 328 330 327 325 324 323 319 320 327 329 329 329 329 329 329 329 328 328 328 327 328 327 327 327 327 326 326 326 325 325 324 324 323 324 323 323 323 324 323 322 323 324 323 324 325 324 324 322 322 322 321 320 318 318 317 309 307 309 309 314 318 318 318 319
334 331 329 329 329 328 330 330 329 328 326 327 328 328 329 327 327 324 321 321 320 326 330 327 325 325 325 321 318 324 328 330 330 329 329 329 329 328 327 328 327 327 327 326 327 326 325 325 326 326 325 324 324 323 323 323 323 323 323 323 323 324 324 324 325 324 323 323 322 321 322 320 319 317 318 318 308 302 304 310 315 316 316 318 317
335 333 331 329 328 327 328 329 329 329 326 327 328 328 329 329 327 325 323 323 319 322 327 327 326 326 326 324 320 320 325 329 330 329 329 328 328 328 328 327 327 327 327 326 325 324 325 325 325 325 324 324 323 323 323 323 323 324 324 324 324 324 324 324 324 324 323 323 321 321 321 316 316 316 317 316 307 300 304 309 310 308 310 314 314
335 334 332 330 329 327 327 327 328 329 326 326 327 326 327 328 327 326 326 327 323 319 322 324 326 327 327 326 324 321 322 327 329 329 329 328 328 329 328 327 327 327 326 326 325 325 325 325 324 324 324 324 323 324 323 323 323 324 324 324 325 325 325 325 324 323 322 322 321 321 319 312 313 315 315 314 305 299 301 302 301 297 300 304 304
335 334 333 331 330 329 326 326 327 328 326 325 326 325 326 327 326 325 325 326 325 321 319 321 325 327 328 327 325 323 322 324 328 329 328 328 328 329 328 327 327 327 326 326 325 324 324 325 324 323 323 323 324 324 323 323 324 324 325 325 326 325 325 324 323 322 322 322 321 320 317 310 310 312 311 311 306 302 300 295 295 295 294 295 295
334 334 334 332 331 330 327 326 325 324 323 323 324 325 326 327 326 326 325 325 324 323 321 320 323 326 328 328 327 325 322 321 324 327 328 328 329 328 328 327 327 327 325 325 326 324 324 325 325 324 324 323 324 324 323 324 325 325 325 325 325 325 325 324 322 322 321 321 319 318 317 309 305 306 307 310 309 307 304 297 294 294 294 294 293
335 334 334 334 332 331 329 326 324 323 322 321 323 325 326 326 326 326 325 325 323 322 322 320 320 323 325 327 327 326 324 320 320 323 326 329 329 329 328 328 327 327 326 326 326 325 325 325 325 325 325 324 324 324 324 325 325 325 324 324 325 325 324 323 321 321 320 319 316 315 314 307 301 302 303 306 309 309 307 301 295 294 294 294 293
335 335 334 334 334 332 330 328 325 324 323 322 322 323 325 326 326 326 326 325 323 322 322 320 319 320 322 325 326 326 326 323 320 321 324 328 329 329 329 328 328 328 327 327 326 326 326 325 325 325 326 325 325 324 324 324 325 324 323 323 324 324 323 322 320 321 319 317 315 312 310 306 301 300 300 302 306 306 307 304 298 297 296 295 294
335 335 335 335 334 333 332 329 327 325 324 324 324 323 325 326 326 326 326 325 324 323 322 320 321 322 323 325 326 326 326 326 322 321 325 327 329 329 329 329 329 328 327 327 327 326 326 326 326 326 326 326 325 325 325 325 324 323 323 323 323 323 323 321 320 320 319 315 313 308 305 304 301 299 298 299 300 300 300 301 300 300 299 296 293
335 335 335 335 335 334 333 332 329 327 325 325 325 324 324 325 326 325 326 325 325 324 323 322 323 326 328 329 328 327 327 327 325 324 326 328 328 329 329 328 328 328 328 327 327 327 327 327 327 326 326 326 325 326 326 325 323 323 323 323 323 323 322 321 320 320 319 314 309 304 299 302 304 302 299 296 296 296 294 295 297 299 299 297 294
335 335 335 335 335 335 334 334 332 329 328 326 325 325 323 323 324 324 324 325 325 325 325 324 325 328 332 332 330 329 329 329 327 326 327 328 328 328 329 329 329 329 328 327 327 327 327 327 327 327 327 326 326 326 325 324 323 323 322 322 322 321 320 321 320 320 318 310 304 303 300 300 306 306 302 298 294 294 294 294 294 295 297 297 295
335 335 335 335 335 335 335 334 333 332 330 329 327 326 325 324 323 324 324 325 325 325 325 326 327 329 331 332 332 331 331 330 329 329 329 329 329 329 328 328 329 329 329 328 328 327 327 327 327 327 326 326 326 326 325 323 322 323 322 322 323 321 321 321 319 318 317 309 302 302 301 300 305 306 304 303 298 295 295 295 295 294 294 296 295
334 334 334 334 335 335 334 334 334 333 332 331 330 329 328 327 326 326 326 326 327 327 327 328 329 331 331 332 332 333 332 331 331 330 330 330 329 329 329 329 329 329 329 329 328 327 327 327 327 327 326 326 326 325 325 324 322 323 323 323 321 321 323 322 318 316 315 312 304 298 297 299 303 303 304 306 302 298 297 297 298 297 294 294 294
333 334 334 334 334 334 334 333 333 333 332 331 331 331 331 330 330 330 330 329 329 330 330 330 331 332 332 331 332 333 332 332 332 331 331 330 330 329 329 329 329 329 329 329 328 328 327 327 327 326 326 326 325 324 324 322 321 322 322 322 321 323 325 321 317 316 313 312 306 296 295 297 299 301 302 304 303 299 297 299 302 299 295 293 292
333 333 333 333 333 333 334 333 333 332 332 331 331 332 333 332 332 332 333 332 332 332 332 331 331 332 332 331 331 332 332 332 332 332 332 331 330 330 329 329 329 329 329 329 329 328 328 328 327 326 326 325 325 324 323 321 321 322 321 320 320 321 322 318 317 316 311 310 306 297 294 295 297 299 301 302 301 298 297 300 302 299 296 293 291
333 332 332 332 332 333 333 333 332 332 331 332 331 331 332 333 333 333 333 333 333 333 333 332 332 332 332 332 332 333 332 332 332 332 332 332 331 330 329 329 328 328 329 329 329 328 328 328 327 327 325 325 324 324 323 322 322 322 321 320 319 318 319 317 317 315 311 309 306 300 295 294 296 298 299 300 299 298 295 297 298 296 294 292 291
332 332 332 332 332 332 332 332 332 332 331 331 332 331 331 332 333 332 333 333 333 333 333 333 333 332 332 333 333 333 333 332 332 332 332 332 332 331 329 329 328 328 328 329 329 328 328 328 328 327 326 325 324 323 323 323 322 322 321 320 318 317 317 316 315 313 311 310 308 304 299 295 295 296 297 297 297 297 294 293 294 293 292 291 290
331 332 331 332 332 332 332 332 332 332 332 332 332 331 331 331 332 333 332 332 332 332 333 333 333 332 332 333 333 334 333 333 333 333 332 332 332 331 330 329 328 328 328 329 329 328 328 327 327 327 326 325 323 323 323 323 323 322 320 318 316 315 314 313 313 312 309 309 309 306 301 299 298 297 296 296 296 297 295 293 292 291 292 291 289
330 331 331 331 331 331 332 332 332 332 332 332 332 332 331 331 332 332 332 332 332 332 333 333 333 333 332 332 333 333 333 333 333 332 332 331 332 332 330 330 329 328 328 329 329 328 327 326 326 326 326 325 323 323 323 323 323 322 319 317 315 314 313 311 311 311 308 306 308 305 300 300 300 298 298 296 295 298 297 294 292 291 291 290 289
329 330 330 330 331 331 331 331 332 332 332 332 332 332 332 331 331 331 332 331 331 332 332 333 332 332 332 332 332 332 331 332 332 332 331 331 332 332 331 330 330 329 329 329 329 327 327 325 324 325 326 326 324 323 323 322 322 320 317 317 315 313 312 309 306 307 305 303 306 305 302 301 299 298 299 296 294 297 298 296 293 292 291 291 290
Wind_Speed
11 10 12 11 12 13 12 12 13 13 14 14 13 12 12 14 14 14 14 14 14 15 15 14 11 12 14 15 15 15 16 17 17 18 19 19 19 19 20 20 20 19 19 20 20 19 18 18 18 18 18 18 19 20 20 19 19 19 19 19 20 20 21 22 22 22 23 23 23 24 23 23 23 22 22 22 22 21 21 20 21 21 21 20 21
10 10 13 12 12 13 13 13 13 13 14 14 13 12 13 15 15 15 15 15 15 14 15 15 13 13 13 13 14 15 15 17 17 17 18 20 19 19 19 19 20 19 19 19 19 19 18 18 17 17 17 18 19 19 19 19 19 19 19 20 21 21 22 21 19 18 20 22 22 23 23 22 22 22 22 21 21 21 20 20 19 20 20 19 19
10 11 12 12 13 13 13 13 13 13 14 14 13 13 14 16 15 16 15 14 14 15 15 15 15 15 14 14 15 15 15 16 17 17 19 20 18 17 18 19 19 19 19 19 19 19 18 18 17 17 18 19 19 19 19 19 19 19 19 21 23 23 23 22 20 17 15 19 21 20 21 21 21 20 21 21 21 21 20 20 18 19 19 19 19
10 12 12 12 12 13 13 13 13 13 13 13 13 14 15 15 14 15 14 13 14 15 15 15 15 16 15 15 15 15 15 16 17 17 18 19 17 16 17 19 19 19 20 19 19 19 18 18 17 18 19 20 20 20 20 20 20 20 21 22 24 24 23 22 21 20 17 17 18 19 20 21 21 19 19 20 20 20 20 20 19 18 18 18 18
11 12 13 12 12 12 13 13 13 13 13 13 14 14 14 14 14 14 12 13 14 14 15 15 15 16 16 15 16 16 16 17 17 17 17 17 17 16 16 18 18 19 20 19 19 19 19 18 18 18 19 20 20 20 20 21 21 22 23 23 23 22 21 20 19 19 17 15 17 19 20 21 21 19 18 18 18 18 19 20 19 18 18 16 16
12 13 13 12 12 12 13 13 13 12 13 13 14 14 14 14 14 13 11 13 14 13 14 14 14 15 15 15 16 16 16 16 16 17 16 16 16 16 16 17 17 18 18 18 19 18 18 18 18 18 19 20 20 20 20 21 22 23 24 24 24 22 21 19 18 17 16 17 19 19 19 20 20 19 17 16 17 17 17 18 18 17 17 16 15
14 14 12 12 13 13 13 13 12 13 13 13 13 14 15 14 13 13 12 13 13 13 13 13 14 14 15 15 15 16 16 15 15 15 15 15 15 15 15 16 17 17 17 17 17 18 18 18 18 18 19 20 20 20 20 21 22 23 23 22 22 22 21 19 19 17 16 19 18 17 19 18 17 18 17 16 16 16 16 16 16 16 15 15 15
16 16 12 13 13 14 14 13 13 13 13 12 12 13 15 14 11 12 12 12 12 13 13 13 13 14 14 14 14 15 15 15 15 15 15 15 15 15 15 15 16 17 16 16 16 17 17 17 17 18 19 20 20 20 20 21 22 23 22 22 22 21 20 19 19 18 16 17 17 17 18 17 17 19 19 18 16 15 15 15 15 15 13 14 15
17 17 12 13 14 14 14 13 13 13 12 12 12 12 13 13 12 13 13 12 11 12 13 13 13 14 14 14 15 15 14 14 14 15 15 14 15 15 14 15 16 16 16 16 16 16 16 16 16 17 18 19 20 20 21 21 21 22 22 21 21 21 20 17 17 17 16 15 16 18 17 16 17 19 19 20 20 19 17 15 15 16 15 14 15
16 16 12 12 14 14 13 13 14 14 12 12 12 11 11 12 11 11 12 11 11 12 13 12 12 13 13 13 14 14 14 14 13 13 13 13 13 13 14 15 15 16 15 15 15 15 15 15 15 16 17 18 19 20 20 21 21 22 22 21 19 19 19 18 16 16 17 14 15 17 17 16 17 18 17 19 21 21 20 17 16 16 15 15 15
15 16 13 11 14 13 13 14 15 15 13 12 11 10 11 11 9 9 11 11 11 11 12 12 12 12 12 12 13 13 13 13 12 12 12 12 12 11 13 14 15 15 14 14 14 14 14 14 14 15 16 17 18 19 19 19 20 21 21 21 19 18 17 17 16 15 15 14 14 14 14 15 16 15 14 16 18 19 19 18 16 15 14 15 15
14 16 12 11 14 13 13 14 16 15 13 12 11 10 11 11 10 10 11 10 11 11 11 11 11 12 12 12 12 12 12 12 12 12 12 12 12 12 13 13 13 13 13 13 13 13 13 13 13 14 15 16 17 18 18 18 18 18 19 19 19 18 17 16 16 16 15 14 13 11 11 13 14 12 11 12 14 15 15 15 15 14 14 14 14
14 14 11 13 15 12 14 15 16 14 13 12 10 10 11 12 11 10 10 10 11 12 12 11 11 11 11 12 12 11 12 12 12 11 11 12 11 11 11 11 11 12 12 12 12 12 12 12 12 13 14 15 16 17 17 18 17 16 15 16 16 15 16 15 14 14 13 13 11 10 10 11 13 12 10 11 13 14 14 13 14 13 13 13 13
12 11 11 14 15 13 14 15 16 14 13 12 10 10 11 12 11 10 9 8 11 12 12 12 11 10 10 12 11 11 11 11 11 11 11 10 10 10 10 10 10 10 10 11 11 11 11 11 12 13 14 14 15 16 16 16 17 16 14 14 14 14 15 14 12 13 12 13 11 9 10 11 12 12 11 12 12 13 13 11 11 13 13 13 13
13 13 12 13 15 14 14 15 15 14 13 12 10 10 11 12 12 11 9 7 9 11 11 11 11 10 11 11 11 10 11 10 10 10 10 10 9 9 9 9 9 9 9 9 9 9 10 10 11 12 12 13 13 14 15 15 15 15 14 14 14 14 14 12 11 12 12 11 9 8 7 9 11 11 11 11 10 10 13 11 10 12 11 12 12
14 13 11 13 15 14 14 15 13 13 13 12 11 10 10 12 13 11 9 7 7 8 9 9 10 11 11 11 11 10 11 10 10 10 9 9 9 8 8 9 8 8 8 8 7 8 9 9 10 10 11 11 12 12 13 13 13 13 14 14 14 13 13 11 10 10 10 8 7 8 5 5 8 9 10 10 9 9 11 10 10 11 11 11 12
12 12 13 14 15 14 14 14 13 13 13 12 10 10 11 13 13 12 11 8 8 8 8 9 10 13 12 11 10 10 10 11 11 10 9 9 9 8 8 8 8 8 8 7 7 7 7 8 8 8 9 10 11 11 11 11 11 12 12 13 14 13 12 10 10 9 9 7 5 9 8 4 5 7 10 11 10 10 10 10 10 10 11 11 12
13 14 13 13 15 14 14 14 14 14 12 11 10 10 12 13 12 13 12 10 9 8 8 10 12 13 12 10 9 8 9 10 10 9 8 9 9 9 8 7 7 7 7 6 5 5 6 6 7 7 8 9 9 10 10 10 10 11 11 13 13 12 11 9 9 8 8 8 6 9 10 8 7 7 10 11 11 11 11 11 11 11 11 12 12
13 14 12 14 17 14 14 15 14 13 11 10 9 10 13 13 12 12 12 10 9 7 8 10 11 11 9 8 8 7 8 8 8 7 6 7 7 7 7 7 5 5 4 3 3 3 4 5 6 7 7 8 8 9 9 10 10 10 11 12 12 11 10 8 8 7 7 7 7 9 12 11 10 10 10 11 11 12 12 12 12 12 12 12 13
12 13 12 15 17 14 14 14 12 10 10 9 9 11 13 13 12 11 11 10 9 8 8 10 10 8 8 8 7 7 8 8 7 6 5 5 5 6 6 6 5 5 4 3 4 4 5 5 5 6 7 7 8 10 11 11 12 12 12 12 12 11 10 8 7 7 6 6 7 9 13 13 12 11 9 10 11 12 13 12 12 13 13 13 13
11 13 14 15 16 15 13 14 13 10 12 11 9 11 13 13 13 12 10 10 10 9 9 9 8 7 8 7 6 6 6 7 7 5 5 5 5 6 6 5 5 6 5 5 5 5 5 5 5 6 7 7 8 9 11 12 13 13 13 11 10 10 10 9 8 8 6 6 8 9 14 15 13 11 9 10 11 12 12 12 12 13 13 14 13
12 13 14 14 16 15 13 16 15 13 15 11 8 11 12 12 13 13 11 10 10 10 9 8 8 7 7 7 6 5 4 6 6 5 5 5 5 5 6 5 5 5 4 4 4 4 5 5 6 6 7 8 9 9 10 11 11 11 11 10 10 9 9 9 7 8 8 9 10 10 14 15 13 12 9 9 10 11 11 11 12 12 13 14 13
13 14 15 15 15 15 14 16 17 16 16 12 9 9 12 12 12 13 12 12 11 10 9 9 9 8 8 9 8 5 6 8 6 5 4 4 4 4 5 5 5 4 4 4 5 5 5 6 6 7 8 9 9 7 7 8 9 9 9 8 9 8 8 8 6 7 9 10 10 11 14 14 14 12 9 9 10 10 10 11 11 11 12 13 13
16 15 15 16 16 16 16 16 17 17 16 14 10 8 13 13 11 12 13 13 13 11 9 9 8 9 10 9 8 10 10 9 8 5 4 3 4 4 5 5 5 5 5 6 6 6 6 7 7 7 8 8 7 6 5 6 7 7 8 7 7 8 7 8 7 7 8 9 10 12 14 14 13 11 10 9 9 9 9 10 10 11 11 12 13
17 16 16 17 16 17 17 17 18 17 16 17 14 11 14 15 13 13 12 12 12 12 11 10 9 9 11 9 10 14 13 10 9 6 4 3 4 4 5 6 6 6 6 7 6 6 6 7 7 7 7 6 5 4 4 5 5 4 7 7 7 7 6 8 8 8 8 9 10 11 13 14 12 11 10 9 9 9 9 9 10 10 11 12 13
16 16 16 17 17 17 17 17 18 18 16 17 17 14 15 15 16 15 12 12 12 13 13 12 12 12 12 9 12 14 12 9 9 8 6 4 3 3 4 5 6 6 6 6 5 5 5 6 6 5 3 3 3 4 4 5 6 5 6 6 6 6 6 7 8 8 8 9 10 10 13 14 12 9 8 8 8 9 8 9 10 11 12 13 14
18 17 15 17 17 17 18 18 19 20 17 16 16 17 18 17 17 16 15 14 14 14 14 14 14 14 14 11 13 12 11 8 8 8 7 5 5 3 3 4 5 5 6 4 4 6 5 4 3 2 3 3 4 5 3 4 6 6 7 6 7 7 7 7 7 8 8 8 8 9 13 13 10 9 8 9 9 9 9 10 10 11 12 13 14
20 19 17 17 18 18 19 19 19 21 19 16 16 18 19 17 16 17 18 16 15 16 15 14 14 15 15 12 11 11 11 8 8 9 8 7 5 5 6 5 5 4 5 4 3 5 3 1 1 3 4 4 5 5 2 4 6 6 7 6 8 8 6 6 6 7 8 7 7 9 12 11 10 10 10 10 10 10 9 10 10 11 12 13 15
18 19 18 18 19 19 19 19 19 21 21 18 16 18 19 17 17 19 19 16 15 16 15 14 14 15 15 14 11 10 10 10 9 9 9 8 7 7 7 5 5 3 3 4 2 1 1 1 2 3 3 3 3 4 4 4 5 6 6 5 8 8 5 5 6 7 6 6 7 9 11 10 10 11 11 11 10 9 9 9 10 11 12 13 15
18 18 18 18 19 19 19 20 19 20 20 19 17 18 19 18 17 19 19 17 17 15 14 15 15 15 15 15 14 12 11 11 9 9 9 9 8 7 7 6 5 4 3 4 4 3 4 3 3 4 4 3 2 3 6 6 4 5 4 3 7 7 5 5 5 6 4 4 6 7 8 9 10 11 12 12 11 9 9 10 11 13 14 14 16
20 20 20 20 20 21 20 20 19 19 19 19 18 16 18 20 18 19 19 18 19 16 14 16 15 14 14 16 17 14 12 11 10 10 10 10 7 5 7 8 6 6 5 5 5 5 5 4 5 6 5 5 4 4 5 5 3 3 3 2 6 5 4 4 4 4 4 4 5 5 7 8 10 11 12 14 13 10 10 11 13 15 16 16 17
21 23 23 21 22 23 22 21 20 20 20 19 19 16 16 19 18 19 20 19 19 17 15 16 15 14 14 15 17 16 14 12 11 10 10 10 9 7 7 8 7 8 7 6 7 7 6 6 6 6 5 5 5 5 4 4 5 3 2 2 4 3 3 4 3 3 4 4 4 4 6 8 9 10 11 14 14 12 11 13 15 17 17 18 19
23 23 24 24 24 25 25 24 22 22 23 21 20 19 17 17 18 18 19 18 19 18 15 15 15 14 15 15 16 17 16 14 13 12 12 11 10 9 9 9 8 8 8 7 7 7 5 6 7 6 6 4 3 4 3 4 6 2 0 2 4 2 3 3 1 3 4 4 4 4 5 6 7 8 9 12 13 12 13 14 16 18 18 19 20
25 23 26 27 25 26 26 26 25 23 24 23 21 21 19 18 18 18 16 17 19 19 17 16 15 15 16 16 16 17 16 15 14 13 14 13 11 11 11 10 9 9 8 8 7 6 6 6 5 6 6 4 3 5 3 4 3 1 1 1 2 1 3 3 1 3 4 4 4 4 3 4 7 8 8 9 12 13 14 15 16 18 19 20 20
27 26 27 29 27 27 28 27 27 25 25 25 23 23 21 20 20 20 18 18 19 20 19 17 16 16 16 17 17 17 18 16 14 14 15 14 12 12 12 10 10 10 9 7 6 6 5 4 4 5 5 3 3 4 3 2 2 1 3 2 2 2 2 2 1 3 5 5 5 3 3 6 9 8 8 7 10 15 15 15 16 17 18 18 19
29 28 26 28 28 27 29 29 29 28 27 27 25 24 23 22 23 22 21 21 20 20 21 19 18 17 17 17 18 18 19 18 16 15 14 13 13 13 11 9 10 11 10 7 7 6 5 4 4 5 5 4 3 3 2 2 2 2 2 2 3 3 2 2 2 3 4 4 4 3 4 6 9 8 7 6 9 14 14 14 14 15 16 16 18
30 30 27 27 28 28 29 30 32 32 30 29 28 25 24 24 23 22 22 23 22 21 21 21 20 19 18 18 18 18 19 19 18 18 16 14 14 13 10 9 11 12 10 9 8 6 6 5 4 3 4 4 3 3 3 2 2 2 2 1 2 2 0 3 2 4 4 4 5 5 4 5 8 9 9 8 9 11 11 11 13 14 14 15 17
30 30 29 28 28 28 30 31 32 33 32 31 30 28 26 25 24 23 23 23 24 23 22 22 21 21 20 19 19 18 19 20 20 20 18 16 14 13 12 11 11 10 9 10 9 7 7 7 6 5 4 5 5 5 5 3 2 3 3 2 1 1 1 3 4 4 5 5 6 6 4 4 8 9 9 11 11 9 9 9 10 11 12 13 16
29 30 30 29 29 28 30 31 32 33 33 32 31 30 27 26 24 23 23 23 24 23 22 21 21 21 20 20 20 19 19 19 20 20 20 18 16 15 14 14 13 12 11 11 11 10 10 9 8 7 6 6 7 6 6 5 4 5 4 3 2 2 3 4 5 5 5 7 6 5 5 5 8 9 10 12 12 11 10 8 8 9 10 12 15
28 29 29 29 30 29 30 32 32 32 32 31 30 30 29 27 26 24 24 25 25 24 23 22 21 21 21 20 20 21 19 19 20 21 20 20 19 16 16 15 15 15 14 13 13 12 12 11 10 9 8 8 7 7 7 6 5 5 4 4 4 4 5 5 6 6 7 7 5 5 6 6 8 9 9 11 11 11 11 9 8 9 9 10 14
28 29 29 30 31 31 31 32 33 32 32 32 31 32 32 30 29 28 28 27 26 25 24 24 23 21 20 20 21 21 20 19 21 23 22 22 20 17 16 16 16 16 16 16 15 14 13 12 12 11 9 8 6 8 8 5 4 4 4 6 8 6 5 7 8 7 7 6 5 6 6 8 9 8 7 9 10 10 10 10 9 9 9 9 12
29 30 31 32 32 32 31 31 32 33 33 34 34 34 35 35 33 32 31 29 28 28 27 26 26 24 22 22 22 22 22 21 22 24 24 23 22 20 18 17 17 17 17 17 16 15 15 13 12 12 10 9 8 7 7 5 3 4 3 3 7 6 6 10 9 7 7 5 6 7 6 9 10 7 6 7 9 9 9 9 9 10 9 8 11
31 32 33 32 32 32 32 31 32 34 35 35 35 35 35 35 34 32 31 30 29 29 29 27 27 27 26 25 24 25 24 24 24 25 25 24 24 22 20 20 19 19 18 18 17 17 17 15 15 14 12 12 12 10 8 6 5 4 3 1 5 5 5 8 9 9 8 5 6 7 6 9 11 8 7 6 6 7 8 8 8 9 9 8 10
31 32 33 33 33 34 34 34 34 34 35 36 35 34 32 32 31 29 29 29 28 28 28 28 27 28 30 28 26 27 26 25 26 26 25 25 24 22 21 21 21 21 20 19 20 19 19 19 18 16 14 14 14 11 9 9 8 5 2 1 4 5 2 6 10 11 9 7 4 6 7 9 10 8 9 8 4 5 7 7 7 8 8 8 10
32 34 35 35 35 36 36 36 35 35 35 37 36 33 29 29 28 25 24 26 26 26 28 30 30 30 32 31 29 29 28 27 27 27 27 26 25 24 23 23 23 22 22 22 21 21 20 20 19 18 17 16 14 11 10 11 11 8 5 3 2 3 2 8 11 8 10 10 5 6 7 9 9 8 10 10 5 5 7 6 5 5 6 8 10
33 35 36 37 36 37 37 36 36 36 36 36 36 35 31 30 31 29 27 27 26 28 31 32 33 33 33 32 31 30 30 28 28 29 28 28 27 26 25 25 25 23 23 24 23 22 21 20 19 18 18 18 15 13 14 13 12 11 10 7 3 2 3 9 9 4 8 11 7 6 6 7 9 8 10 10 7 6 7 7 4 4 6 7 10
35 35 34 36 37 37 37 38 37 37 37 35 35 37 35 34 35 35 33 32 30 31 33 32 32 34 32 31 31 32 32 31 31 31 31 30 29 27 27 27 26 25 25 25 24 23 22 21 21 20 20 19 17 16 17 15 13 13 13 11 9 6 5 5 5 5 6 7 8 7 6 6 7 7 8 9 9 7 7 7 4 4 5 8 11
36 34 33 36 38 38 38 39 39 38 38 37 36 39 39 37 37 36 35 36 35 33 32 32 31 32 32 32 33 33 32 32 33 34 33 32 31 30 28 27 27 27 26 26 26 24 22 21 22 22 22 22 20 19 17 16 16 15 13 12 11 11 10 7 5 7 5 4 5 5 5 6 6 5 5 7 8 7 7 7 5 5 6 8 12
36 34 36 38 38 39 38 39 40 40 39 39 39 40 42 40 37 37 36 36 36 33 31 32 32 31 31 32 33 34 33 34 35 35 34 34 34 32 30 28 28 28 27 27 26 26 25 24 23 24 23 22 21 20 19 18 17 15 14 12 10 9 10 8 7 7 6 5 4 5 6 7 5 4 2 4 8 7 5 5 5 6 6 8 12
36 35 37 37 37 38 37 38 40 41 39 39 39 41 42 41 38 38 37 36 34 32 29 31 32 32 32 32 33 34 35 35 35 35 35 35 35 34 32 31 30 29 29 28 28 27 27 26 25 24 24 24 23 21 19 17 15 14 14 14 13 12 10 8 10 10 6 5 4 5 8 8 7 6 3 3 7 8 4 3 3 6 8 8 13
34 34 34 35 36 36 37 38 40 39 38 39 39 40 41 41 40 40 39 37 34 32 30 31 33 34 34 34 34 35 36 36 37 37 37 36 36 36 35 33 31 30 30 29 29 29 27 26 25 24 24 26 25 22 20 17 14 14 13 13 16 17 13 9 13 16 9 6 5 4 7 7 6 6 5 2 4 7 5 1 2 7 9 9 13
Wind_Direction
121 133 133 129 121 120 118 118 116 116 111 106 103 98 94 92 91 90 90 89 90 97 99 92 88 89 82 80 80 79 77 76 76 77 78 79 80 80 80 81 82 82 79 80 80 79 79 78 77 77 76 74 71 69 68 67 65 64 63 62 63 66 69 70 70 67 61 63 69 67 62 61 61 61 60 59 58 59 61 59 55 55 56 54 50
131 138 136 133 124 121 119 118 117 116 111 106 101 97 95 91 90 87 88 88 85 86 90 90 87 87 86 85 86 83 81 80 78 78 81 80 79 81 82 82 84 82 80 79 79 79 80 79 78 78 76 74 71 68 67 66 64 63 63 64 67 72 77 75 73 72 68 63 66 68 64 61 61 60 59 59 57 58 60 57 56 56 55 54 51
137 141 138 134 125 123 120 119 119 117 111 107 101 97 96 91 88 85 88 91 88 87 86 87 87 87 88 87 88 86 83 82 79 77 79 79 82 87 85 85 84 81 81 81 82 81 80 80 79 78 75 73 70 69 67 66 65 65 67 72 75 79 82 81 77 75 77 68 62 66 65 62 61 60 60 60 59 57 56 55 57 57 55 55 54
135 140 138 133 127 125 122 122 121 118 113 109 101 96 96 96 99 97 95 96 93 90 89 88 88 88 88 87 88 87 84 83 81 78 78 78 83 88 86 85 84 81 82 83 83 81 80 79 79 78 75 72 70 69 68 68 68 70 75 82 83 81 81 80 78 74 77 71 60 62 62 62 61 60 60 60 59 57 55 55 59 58 56 56 54
137 140 137 133 130 128 123 125 122 120 116 110 101 95 97 97 101 98 92 95 93 90 91 89 89 88 87 86 88 89 88 85 82 79 79 80 82 84 83 83 82 81 82 82 81 80 79 77 77 75 73 71 69 69 69 70 71 76 82 86 83 79 77 76 78 76 77 71 60 62 60 59 61 60 59 58 57 57 55 55 57 56 54 53 52
135 134 135 134 134 131 126 126 123 122 118 111 101 94 96 95 96 95 89 94 92 87 88 89 89 88 87 86 86 89 90 86 83 81 80 82 82 82 83 84 83 82 82 80 79 80 79 77 76 73 72 71 69 70 70 72 75 80 84 85 81 77 75 74 78 77 78 75 62 60 60 58 59 57 56 57 56 55 54 53 54 51 52 52 51
132 131 134 136 136 134 130 129 126 123 119 110 101 96 95 95 96 97 94 95 98 92 90 92 90 90 88 86 87 88 91 88 85 83 81 83 82 82 85 88 86 83 81 79 77 78 80 78 76 75 74 72 70 69 68 72 78 81 81 82 80 77 75 75 75 72 76 77 66 60 60 58 54 52 53 56 55 54 53 50 49 48 54 56 51
135 135 136 140 140 137 134 131 129 126 120 112 105 101 99 99 94 96 98 97 101 98 95 94 92 93 90 89 93 92 92 92 89 84 81 82 82 82 84 85 84 82 81 79 77 76 79 78 77 77 76 73 71 70 69 73 80 81 80 80 77 75 76 76 73 69 72 73 71 72 64 57 52 53 53 54 55 53 52 49 48 45 49 51 45
136 136 138 145 144 140 136 133 132 128 123 117 113 105 100 105 103 101 102 102 104 99 96 95 94 94 92 91 93 93 94 94 92 87 84 87 86 83 84 84 83 82 82 81 79 77 77 77 76 77 76 74 71 70 70 73 81 82 81 81 78 74 72 75 77 74 71 68 68 69 64 57 54 57 53 52 53 50 50 47 47 45 43 44 42
133 132 138 146 145 142 137 136 135 130 126 122 118 106 100 109 113 112 109 111 109 101 97 95 95 94 94 95 94 95 98 98 95 91 92 96 92 87 89 87 85 84 83 82 81 80 78 78 77 77 75 72 71 69 70 72 79 82 82 81 79 77 76 76 77 75 70 69 68 65 64 60 57 61 56 50 49 48 48 47 48 48 44 43 42
134 135 141 145 147 144 140 140 138 134 132 129 121 106 103 109 108 114 118 116 110 105 103 97 97 99 99 100 101 100 102 104 101 96 93 94 92 87 88 86 85 84 84 83 82 82 81 80 79 77 74 71 69 68 68 71 77 81 81 79 77 76 80 82 78 74 70 67 71 72 72 68 63 61 53 45 41 43 47 47 48 47 43 40 37
134 141 147 149 150 148 144 141 140 138 137 134 123 110 112 118 112 111 115 116 114 112 110 106 103 104 106 103 102 102 102 106 102 98 93 91 88 85 86 84 85 86 86 85 83 84 81 81 79 76 73 70 68 66 67 67 73 79 79 78 78 75 75 80 80 77 73 69 67 64 70 74 68 56 41 37 32 35 42 44 43 41 38 36 32
138 143 144 149 151 150 145 142 143 139 136 134 127 119 120 127 121 109 113 125 126 118 113 112 111 108 108 105 104 105 105 107 105 102 98 93 89 89 93 91 91 90 90 88 85 85 82 80 79 77 72 69 66 64 64 64 69 76 80 78 78 80 75 72 77 79 72 71 64 53 65 75 68 53 33 26 22 28 35 39 38 36 33 30 26
142 141 141 150 152 150 148 144 144 142 140 139 134 125 124 132 126 116 127 140 132 125 121 116 121 118 110 107 105 105 103 106 108 107 103 98 94 94 97 97 96 95 95 95 93 91 86 82 78 76 71 68 65 62 63 63 66 72 81 85 83 84 80 70 72 80 72 69 62 52 64 72 69 53 33 21 16 26 32 36 35 30 27 24 22
139 143 145 152 154 151 151 149 148 147 147 146 141 129 127 137 131 128 143 144 128 127 126 123 130 126 117 114 110 107 105 105 108 109 108 106 102 98 97 96 96 97 99 98 98 96 90 84 79 75 70 65 62 61 61 62 64 67 76 87 89 84 80 71 67 76 72 65 52 47 64 67 63 50 35 26 20 25 24 28 29 23 20 19 19
145 147 141 146 154 155 154 154 153 149 149 148 146 138 133 141 141 142 152 147 130 128 130 134 138 130 122 119 118 123 121 111 109 110 108 109 110 106 103 99 98 101 100 98 97 95 90 84 78 73 68 63 60 59 60 62 64 64 70 82 90 85 81 74 62 68 70 60 37 34 49 54 47 39 29 21 24 26 18 21 19 13 11 10 7
149 146 140 145 152 156 158 158 156 149 150 151 152 151 144 147 153 154 153 152 147 145 143 141 145 142 132 129 131 134 132 123 122 122 118 121 120 114 114 111 108 110 108 111 109 100 88 80 76 69 64 60 56 58 59 62 64 63 68 77 83 80 77 74 58 54 56 54 38 26 28 33 29 30 23 11 16 23 22 22 14 5 -0 357 355
147 146 144 146 150 157 162 159 156 153 153 156 158 162 158 156 161 162 160 163 162 160 154 144 149 151 143 143 145 142 144 140 136 135 133 133 128 124 126 121 120 128 126 123 119 102 86 78 73 67 61 58 56 57 59 60 62 61 69 74 72 69 65 65 57 48 43 42 35 17 18 24 18 21 17 9 10 13 17 17 9 1 355 352 353
152 151 148 149 153 158 160 160 159 158 161 161 163 168 168 168 167 168 172 175 171 166 158 148 148 151 147 145 145 147 155 155 149 147 151 151 144 141 136 127 129 145 149 134 119 107 95 83 69 65 58 56 56 55 57 58 59 59 69 71 63 59 50 49 53 44 37 27 18 9 12 16 14 17 13 6 5 6 11 8 2 358 355 355 353
159 154 156 157 161 161 156 160 161 160 166 165 163 170 174 175 175 173 178 182 179 173 161 150 145 144 143 140 140 147 157 167 172 170 165 162 161 165 159 144 138 136 136 126 106 99 95 84 68 63 57 58 63 59 59 56 53 55 61 63 56 49 39 48 50 32 29 12 3 359 3 7 8 12 11 4 0 1 6 2 357 356 355 355 353
168 162 164 162 163 162 154 160 164 160 168 171 164 172 177 178 179 177 178 181 182 178 169 161 156 151 145 138 130 127 141 162 174 180 171 160 159 166 175 165 148 137 123 114 98 89 85 83 74 68 64 66 67 57 56 53 46 45 48 52 53 43 31 43 41 26 26 7 2 351 352 359 3 6 6 2 358 359 1 357 355 355 353 352 350
176 170 171 170 166 163 158 163 168 165 168 175 170 171 178 179 181 182 182 182 187 188 186 184 181 175 156 139 126 113 127 157 176 191 175 163 159 155 166 167 155 145 125 112 101 96 89 87 83 79 75 67 61 45 42 44 37 35 38 41 44 37 25 27 23 22 22 6 2 352 352 358 1 4 3 358 356 357 356 355 356 354 354 351 347
179 177 174 177 175 169 167 168 170 168 166 172 180 179 176 179 182 186 189 187 193 195 198 200 196 197 172 145 140 155 172 179 204 206 172 160 156 153 158 162 158 149 134 122 107 105 100 96 91 82 77 63 52 36 25 23 21 24 29 33 29 22 20 19 7 10 10 356 353 350 352 358 0 2 2 359 356 357 355 356 358 356 357 352 349
177 183 180 180 179 176 175 173 173 174 174 171 180 189 172 176 184 188 194 195 199 195 198 195 193 201 170 152 163 183 191 196 218 211 176 154 138 144 145 147 152 144 135 125 110 108 108 102 90 74 67 59 50 40 25 16 16 18 21 23 15 13 16 12 4 4 359 349 349 345 345 350 356 356 356 358 357 359 358 358 2 0 1 358 358
175 182 184 184 181 181 179 176 178 177 183 180 178 183 168 174 185 189 195 199 200 185 189 186 186 197 162 165 199 198 203 203 208 194 160 142 119 120 124 127 135 138 137 123 108 106 108 97 79 64 56 54 51 29 11 18 20 10 13 10 -0 4 6 3 5 4 360 352 345 340 340 344 348 347 347 355 3 6 1 5 12 10 9 6 7
171 179 184 187 184 185 183 181 185 177 184 188 181 179 172 178 186 188 188 195 196 178 189 189 189 197 164 182 216 204 205 198 191 171 149 157 139 116 108 110 118 123 119 107 106 103 87 75 69 68 61 48 33 1 345 357 3 359 2 1 356 359 357 357 360 359 4 355 341 339 340 341 345 347 352 5 15 16 13 20 26 20 17 11 9
170 177 184 188 186 187 185 184 188 182 186 189 181 180 177 181 186 186 184 190 196 183 191 193 196 199 172 194 220 198 191 190 182 163 157 170 156 137 131 125 119 113 107 103 117 111 93 86 71 48 41 13 344 341 346 353 353 353 353 357 359 0 355 345 343 353 6 356 343 344 343 348 2 10 18 27 29 26 26 30 30 24 22 16 15
172 176 179 186 187 189 188 186 190 186 185 183 182 185 180 182 188 189 184 186 195 189 190 192 201 201 183 197 208 183 178 188 186 166 162 165 160 163 160 142 130 126 123 128 109 96 104 107 12 2 16 355 333 326 332 353 344 342 347 349 340 342 348 344 349 -0 11 4 355 352 350 7 27 30 36 39 36 32 29 29 30 27 26 24 25
176 178 178 183 186 190 191 189 192 190 185 182 185 189 182 181 192 194 186 184 191 190 190 190 201 204 193 191 185 177 178 189 191 168 161 168 180 178 163 144 144 159 135 145 164 128 215 267 331 327 325 313 325 323 319 332 330 335 345 346 337 344 5 3 5 8 17 13 4 356 355 20 35 34 36 32 34 34 30 30 31 33 34 32 35
181 183 181 182 184 188 191 192 194 192 188 185 188 193 186 182 195 198 187 187 187 185 190 192 201 205 197 187 176 181 185 190 189 172 172 177 188 180 163 169 177 196 178 174 203 204 224 233 257 260 264 278 300 316 323 322 308 322 331 346 350 3 29 18 11 8 8 5 8 1 357 19 25 24 28 24 27 29 30 33 37 45 47 44 48
183 185 186 186 183 184 191 195 195 194 191 189 189 194 192 187 197 199 190 192 185 178 191 196 200 199 198 193 179 178 185 195 192 179 187 187 192 188 171 181 185 196 198 200 212 215 223 228 255 257 258 270 269 281 313 321 313 325 307 337 1 15 33 14 17 9 353 7 25 14 4 18 16 17 25 23 24 29 35 41 51 58 57 57 58
187 186 189 189 186 185 188 193 197 197 193 192 191 191 197 195 199 200 194 198 187 177 193 198 196 194 201 205 189 180 180 195 202 186 191 194 201 202 184 191 195 203 212 211 222 233 231 237 255 262 281 279 265 271 281 296 304 320 303 0 13 32 33 9 25 13 14 44 53 42 28 27 19 20 26 20 22 37 47 56 65 67 66 66 64
197 192 190 191 191 189 188 189 195 200 196 194 194 191 197 200 203 204 198 202 194 182 193 197 195 196 203 212 202 192 183 188 202 195 194 201 209 206 198 205 208 212 217 217 231 239 241 253 251 259 288 280 266 279 274 294 301 304 188 35 23 37 26 10 7 1 35 68 66 71 53 37 30 32 32 19 24 48 64 68 73 75 74 70 66
202 199 192 192 194 193 191 189 191 201 199 194 197 194 195 201 205 206 201 208 206 193 195 197 196 200 208 216 211 205 197 189 198 205 201 199 207 212 209 211 215 221 225 233 243 242 255 264 247 259 276 263 277 280 264 285 301 324 221 5 4 342 7 12 12 20 56 83 78 76 48 56 58 50 45 25 33 63 75 76 82 84 80 74 69
201 202 194 191 193 195 194 191 191 200 203 196 199 201 197 202 208 206 200 210 214 204 201 200 198 202 210 222 218 213 212 200 197 211 212 201 205 218 216 212 218 223 225 231 236 233 242 243 233 247 241 227 273 276 258 260 239 282 283 284 320 302 2 46 110 54 72 89 86 71 20 72 84 70 61 41 54 74 77 81 86 85 82 77 70
199 202 197 190 192 196 195 194 193 199 206 200 199 204 202 205 211 209 204 210 217 211 209 207 204 205 210 223 226 219 219 213 202 208 217 207 205 219 221 220 218 216 219 222 226 220 214 227 234 241 233 220 250 266 241 237 224 245 273 284 306 307 0 107 135 69 93 108 94 80 32 68 97 98 91 76 73 77 74 79 82 79 79 74 64
199 200 198 192 190 196 197 197 198 201 208 206 200 203 204 206 211 212 209 213 219 217 216 215 211 210 211 219 229 227 222 220 211 207 214 209 207 216 220 227 220 217 223 220 223 215 207 230 228 231 241 208 215 259 237 237 244 218 234 268 315 328 330 168 136 91 119 128 106 101 55 59 96 106 115 112 93 80 74 77 78 77 76 68 56
199 200 199 197 193 196 199 199 202 203 207 208 204 202 204 208 212 213 212 216 222 223 223 222 218 217 216 217 225 230 227 224 218 213 212 208 209 213 214 222 223 225 225 216 223 221 211 225 224 221 228 207 218 243 244 249 249 242 239 225 279 315 171 155 129 122 126 109 101 107 85 69 93 102 117 122 113 95 82 78 80 80 74 62 51
201 200 201 201 197 198 200 201 203 203 205 208 206 204 204 209 212 212 214 217 223 224 223 223 223 222 219 217 221 226 228 226 221 217 215 209 208 213 216 219 222 225 223 219 226 223 219 227 227 220 218 229 237 241 254 256 251 261 244 202 193 212 184 136 125 132 119 108 109 115 111 89 93 104 114 119 119 114 105 93 82 72 61 53 43
202 201 201 202 199 198 199 200 203 203 202 204 205 203 202 205 208 209 211 215 220 222 222 220 220 221 219 218 219 222 226 226 221 218 217 211 207 212 218 221 224 226 223 222 224 224 228 229 226 225 222 231 241 246 253 253 259 266 236 208 185 194 198 150 135 135 122 121 128 128 129 114 99 102 111 117 118 118 118 111 93 71 53 42 35
201 201 201 202 201 199 199 200 201 201 200 200 202 202 202 203 205 208 210 212 216 218 220 217 214 215 216 215 215 218 222 224 221 217 217 214 208 209 217 221 224 224 221 221 223 224 230 230 226 228 225 225 233 236 235 238 262 261 246 219 183 179 187 153 142 143 138 140 143 129 126 124 108 94 102 113 113 110 109 106 98 85 66 39 28
200 201 202 203 202 201 202 201 200 200 201 202 203 205 207 207 208 210 211 212 214 216 217 215 213 211 211 212 213 216 220 221 220 217 216 215 210 208 213 219 221 224 222 221 222 224 228 230 225 223 222 223 224 211 206 217 241 256 276 181 152 142 150 153 149 149 153 150 138 122 115 124 114 102 108 109 108 105 97 93 87 81 70 43 26
200 201 203 203 202 203 204 203 201 201 202 203 204 207 210 211 211 212 211 211 214 218 218 217 215 212 211 212 214 218 218 216 217 217 216 216 214 211 214 219 221 225 224 220 221 222 225 228 226 224 219 219 223 206 191 210 235 263 292 157 151 135 146 169 157 148 157 151 129 119 119 125 121 127 138 117 102 98 86 78 73 68 61 44 26
201 202 203 203 202 204 205 205 205 204 204 204 205 208 210 212 212 213 214 213 215 217 217 216 214 213 213 213 214 218 217 214 215 217 216 216 216 215 217 219 221 225 225 221 220 220 222 226 226 225 217 214 223 215 205 221 225 232 259 229 172 142 167 193 155 142 153 153 129 121 131 133 129 141 143 129 115 100 86 75 67 59 51 41 26
203 204 203 203 203 205 206 207 207 208 209 209 207 206 206 207 207 208 211 210 211 210 210 211 211 212 213 212 213 216 217 215 215 217 218 218 219 218 218 218 219 222 224 221 220 220 222 224 224 222 216 214 217 208 202 210 209 214 233 234 164 144 187 165 146 142 158 160 146 118 131 140 134 139 140 133 134 116 99 93 78 51 40 33 23
207 208 206 205 205 206 206 207 208 210 211 212 209 204 202 202 199 198 198 198 201 204 206 209 209 210 213 213 213 215 216 216 216 217 218 218 219 219 218 218 218 218 221 222 221 220 221 222 220 216 214 215 210 194 190 194 197 213 227 233 236 241 180 151 142 145 155 160 157 121 121 141 134 133 140 140 142 130 108 108 97 35 31 25 17
211 211 208 207 207 207 206 206 208 210 210 211 209 205 204 203 201 200 200 199 202 207 209 211 210 210 211 211 211 214 216 217 215 215 216 216 218 218 217 217 217 215 217 221 221 219 218 219 215 211 213 215 207 195 194 196 197 208 221 235 246 234 204 170 153 149 144 159 165 134 117 142 138 135 145 147 147 133 109 109 97 35 27 19 13
212 210 207 208 208 208 208 207 208 210 210 210 209 208 206 205 205 205 206 207 209 211 211 211 211 211 211 210 210 212 215 216 215 215 215 216 217 216 215 215 214 213 215 219 220 216 214 213 211 210 213 214 211 206 204 205 204 206 211 222 231 219 208 202 172 159 148 149 165 145 125 135 133 134 151 156 151 134 108 103 79 39 25 18 11
211 208 208 210 210 209 209 209 209 211 211 209 209 210 209 207 208 208 210 213 214 215 214 211 211 209 209 210 209 210 212 213 214 214 214 214 215 216 213 212 213 213 214 215 215 213 212 212 210 210 211 213 216 212 209 212 211 206 202 201 208 207 203 203 191 175 151 140 165 172 154 143 136 142 164 166 152 138 115 101 70 35 21 14 7
210 209 210 210 210 210 210 210 211 212 211 210 209 211 210 209 209 211 213 215 215 215 214 213 211 209 210 211 211 211 212 213 214 214 214 213 214 215 212 211 212 211 211 212 211 211 213 214 214 214 214 215 215 213 214 215 208 204 206 200 193 185 182 194 193 182 161 145 159 170 166 161 163 171 186 190 159 148 140 115 59 21 9 4 4
209 208 210 210 210 211 211 212 213 213 211 210 210 211 211 210 211 213 215 216 215 212 211 211 211 210 212 214 215 215 216 217 217 216 215 214 214 214 212 212 212 210 210 211 212 212 213 215 216 217 218 218 217 214 211 204 193 200 209 205 201 195 189 193 190 182 171 157 155 166 175 174 188 190 185 209 177 160 163 177 358 356 351 350 359